Regional Weather Roundup
Issued by NWS

Home | Current Version | Previous Version | Text Only | Print | Product List | Glossary Off
Versions: 1 2 3 4 5 6 7 8 9 10 11 12 13 14 15 16 17 18 19 20 21 22 23 24 25 26 27 28 29 30 31 32 33 34 35 36 37 38 39 40 41 42 43 44 45 46 47 48 49 50

000
ASUS45 KCYS 231910
RWRWY

WYOMING REGIONAL WEATHER ROUNDUP
NATIONAL WEATHER SERVICE CHEYENNE WY
100 PM MDT TUE MAY 23 2017

NOTE:  "FAIR" INDICATES FEW OR NO CLOUDS BELOW 12,000 FEET
WITH NO SIGNIFICANT WEATHER AND/OR OBSTRUCTIONS TO VISIBILITY.

WYZ001-232000-
YELLOWSTONE NATIONAL PARK

CITY           SKY/WX    TMP DP  RH WIND       PRES   REMARKS
LK YELLOWSTONE   N/A     50  33  52 VRB3      30.29F
W YELLOWSTONE  NOT AVBL

$$
WYZ002>013-054>058-071-098>099-232000-
NORTHERN WYOMING

CITY           SKY/WX    TMP DP  RH WIND       PRES   REMARKS
JACKSON        SUNNY     64  30  27 CALM      30.23F
CODY           FAIR      65  31  28 NE7       30.16
GREYBULL       FAIR      67  32  27 VRB3      30.12F
WORLAND        FAIR      65  36  34 VRB5      30.15F
SHERIDAN       FAIR      65  39  38 E6        30.15F
BUFFALO        FAIR      60  34  37 NE8       30.18F
GILLETTE       FAIR      61  35  37 N10       30.15F
HULETT         FAIR      59  32  36 N17       30.16F
NEWCASTLE      FAIR      59  28  31 N14G23    30.14F

$$
WYZ014>020-022>026-101>103-232000-
CENTRAL WYOMING

CITY           SKY/WX    TMP DP  RH WIND       PRES   REMARKS
BIG PINEY      FAIR      62  31  31 VRB3      30.25F
PINEDALE       FAIR      59  30  33 N5        30.26F
DUBOIS         NOT AVBL
LANDER         FAIR      62  28  27 CALM      30.19F
RIVERTON       FAIR      61  29  29 VRB6      30.20F
CASPER         FAIR      59  35  40 MISG      30.19F
DOUGLAS        CLOUDY    58  33  39 N16G23    30.18F

$$
WYZ021-027>030-104>119-232000-
SOUTHERN WYOMING

CITY           SKY/WX    TMP DP  RH WIND       PRES   REMARKS
EVANSTON       FAIR      64  36  35 VRB6      30.27F
KEMMERER         N/A     63  32  31 NW12G17   30.27F
FORT BRIDGER   FAIR      64  34  32 N8        30.30S
ROCK SPRINGS   FAIR      58  29  33 N8        30.26F
RAWLINS        PTSUNNY   53  30  41 W10       30.24F
LARAMIE        CLOUDY    51  30  44 NW24G35   30.20F
CHEYENNE       CLOUDY    50  32  50 N20G28    30.18F
TORRINGTON     CLOUDY    58  29  33 N14G23    30.11F
PINE BLUFFS    CLOUDY    55  32  41 N25G32    30.16F

$$



USA.gov is the U.S. government's official web portal to all federal, state and local government web resources and services.